Location: ??????
(41.3164°N, 22.6615°E)
Time: 02:01:09
(UTC+00:00)

CAS-4A - Pass Details

Date: 13 July 2022
Orbit: 521 x 537 km, 43.0° (Epoch: 10 August)

Event Time Altitude Azimuth Distance (km) Brightness Sun altitude
Rises 21:36:07 0° 276° (W) 2,643 ? -25.5°
Reaches altitude 10° 21:38:21 10° 279° (W) 1,753 ? -25.6°
Enters shadow 21:40:39 32° 289° (WNW) 904 ? -25.7°
